Regional Weather Roundup
Issued by NWS

Home | Current Version | Previous Version | Graphics & Text | Print | Product List | Glossary Off
Versions: 1 2 3 4 5 6 7 8 9 10 11 12 13 14 15 16 17 18 19 20 21 22 23 24 25 26 27 28 29 30 31 32 33 34 35 36 37 38 39 40 41 42 43 44 45 46 47 48 49 50

000
ASUS43 KBIS 261910
RWRND

NORTH DAKOTA REGIONAL WEATHER ROUNDUP
NATIONAL WEATHER SERVICE BISMARCK ND
100 PM CST WED NOV 26 2014

NOTE: "FAIR" INDICATES FEW OR NO CLOUDS BELOW 12,000 FEET WITH NO
SIGNIFICANT WEATHER AND/OR OBSTRUCTIONS TO VISIBILITY.


NDZ001>003-009>011-017-262000-
NORTHWEST NORTH DAKOTA

CITY           SKY/WX    TMP DP  RH WIND       PRES   REMARKS
WILLISTON      CLOUDY    12   4  70 N10       30.37F WCI  -1
MINOT          MOSUNNY    4  -4  69 N8        30.40S WCI  -9
MINOT AFB      PTSUNNY    3  -3  77 NW6       30.41R WCI  -8
$$

NDZ018>021-031>035-040>046-262000-
SOUTHWEST NORTH DAKOTA

CITY           SKY/WX    TMP DP  RH WIND       PRES   REMARKS
BISMARCK       CLOUDY    11   3  70 NE5       30.39R WCI   3
DICKINSON      CLOUDY    20  13  74 N5        30.26S WCI  13
GARRISON         N/A      8   2  76 NE6       30.37R WCI  -2
HETTINGER ARPT LGT SNOW  22  17  81 NE13      30.26S WCI  10
$$

NDZ004>008-012>016-024-026-027-054-262000-
NORTHEAST NORTH DAKOTA

CITY           SKY/WX    TMP DP  RH WIND       PRES   REMARKS
GRAND FORKS    MOSUNNY    3  -6  66 N13       30.45S WCI -14
GRND FRKS AFB  SUNNY      2  -6  66 N13       30.45S WCI -15
DEVILS LAKE    SUNNY      1 -15  46 N12       30.39R WCI -15
$$

NDZ022-023-025-028>030-036>039-047>053-262000-
SOUTHEAST NORTH DAKOTA

CITY           SKY/WX    TMP DP  RH WIND       PRES   REMARKS
FARGO          CLOUDY     6  -4  63 N14       30.40R WCI -11
JAMESTOWN      CLOUDY     4  -5  66 N10       30.38R WCI -11
$$




USA.gov is the U.S. government's official web portal to all federal, state and local government web resources and services.